sat.trackr.live / text

‹ back to catalog

STARLINK-2460

NORAD 48120 · 2021-027AE

PAYLOAD ACTIVE UNKNOWN

§ Identity

Operator
Country
US
Launch date
2021-04-07
Launch site
AFETR
Launch vehicle
Mass (kg)
RCS (m²)

Purposes: comms

External: N2YO · Heavens-Above · Gunter

§ Orbital elements

Epoch: 2026-09-03T22:57:01.639008Z

Period
93.09 min
Inclination
53.1581°
Eccentricity
0.0002434
Mean motion
15.46807118 rev/d
Perigee alt
424.4 km
Apogee alt
427.7 km
Semi-major
6,804.2 km
B*
8.4840e-4
RAAN
47.2941°
Arg perigee
115.5911°
Mean anomaly
244.5349°
Rev number
29,995

§ Raw data

STARLINK-24601 48120U 21027AE  26246.95626897  .00043048  00000+0  84840-3 0  99942 48120  53.1581  47.2941 0002434 115.5911 244.5349 15.46807118299959

JSON: /api/v1/satellites/48120 · /tle

For live sub-satellite position, see the globe view (requires WebGL).

§ Visibility from observer

Set your observer location to see the next 7 days of passes ≥ 10°. The values pass through the URL so the page stays shareable.

No JS? Fill the form by hand. The geolocation button needs JavaScript.